Location: Brantley
(31.5822°N, 86.2569°W)
Time: 17:11:29
(UTC+00:00)

Injun/Solrad 3 - Pass Details

Date: 23 February 2026
Orbit: 871 x 985 km, 66.8° (Epoch: 11 March)

Event Time Altitude Azimuth Distance (km) Brightness Sun altitude
Rises 17:04:36 0° 262° (W) 3,454 10.8 46.8°
Reaches altitude 10° 17:09:19 10° 296° (WNW) 2,533 10.0 47.1°
Maximum altitude 17:10:56 11° 313° (NW) 2,462 9.9 47.2°
Drops below altitude 10° 17:12:33 10° 329° (NNW) 2,548 9.9 47.3°
Sets 17:17:24 0° 4° (N) 3,518 10.5 47.6°
